Probability
1 0 0 0 0 0 0 0 0 0 0 1 2 2 1 1 1 1 2 1 0 0 1 2 2 3 4 4 4 3 3 3 3 3 3 3 2 1
1 0 0 0 0 0 0 0 0 0 0 0 1 1 0 1 1 2 2 1 0 0 0 1 1 1 2 3 3 3 3 3 3 3 3 3 3 2
1 0 0 0 0 0 0 0 0 0 0 0 0 0 0 1 2 3 2 1 0 0 0 0 0 0 1 2 3 3 3 3 3 3 3 3 3 3
0 0 0 0 0 0 0 0 0 0 0 0 0 0 0 1 2 3 2 1 0 0 0 0 0 0 0 1 1 2 3 3 3 3 3 3 3 3
0 0 0 0 0 0 0 0 0 0 0 0 0 0 0 1 2 3 2 1 0 0 0 0 0 0 0 0 0 1 2 2 2 3 3 3 3 3
0 0 0 0 0 0 0 0 0 0 0 0 0 0 0 1 2 2 1 0 0 0 0 0 0 0 0 0 0 0 1 1 1 1 2 2 2 2
0 0 0 0 0 0 0 0 0 0 0 0 0 0 0 0 2 2 1 0 0 0 0 0 0 0 1 0 0 0 0 0 0 0 1 1 1 1
0 0 0 0 0 0 0 0 0 0 0 0 0 0 0 0 1 2 1 0 0 0 0 0 0 0 0 0 0 0 0 0 0 0 0 0 0 0
0 0 0 0 0 0 0 0 0 0 0 0 0 0 0 0 1 1 0 0 0 0 0 0 0 0 0 0 0 0 0 0 0 0 0 0 0 0
0 0 0 0 0 0 0 0 0 0 0 0 0 0 0 0 0 0 0 0 0 0 0 0 0 0 0 0 0 0 0 0 0 0 0 0 0 0
0 0 0 0 0 0 0 0 0 0 0 0 0 0 0 0 0 0 0 0 0 0 0 0 0 0 0 0 0 0 0 0 0 0 0 0 0 0
0 0 0 0 0 0 0 0 0 0 0 0 0 0 0 0 0 0 0 0 0 0 0 0 0 0 0 0 0 0 0 0 0 0 0 0 0 0
0 0 0 0 0 0 0 0 0 0 0 0 0 0 0 0 0 0 0 0 0 0 0 0 0 0 0 0 0 0 0 0 0 0 0 0 0 0
0 0 0 0 0 0 0 0 0 0 0 0 0 0 0 0 0 0 0 0 0 0 0 0 0 0 0 0 0 0 0 0 0 0 0 0 0 0
0 0 0 0 0 0 0 0 0 0 0 0 0 0 0 0 0 0 0 0 0 0 0 0 0 0 0 0 0 0 0 0 0 0 0 0 0 0
0 0 0 0 0 0 0 0 0 0 0 0 0 0 0 0 0 0 0 0 0 0 0 0 0 0 0 0 0 0 0 0 0 0 0 0 0 0
0 0 0 0 0 0 0 0 0 0 0 0 0 0 1 1 1 0 0 0 0 0 0 0 0 0 0 0 0 0 0 0 0 0 0 0 0 0
0 0 0 0 0 0 0 0 0 0 0 1 1 1 2 2 1 0 0 0 0 0 0 0 0 0 0 0 0 0 0 0 0 0 0 0 0 0
0 0 0 0 0 0 0 0 0 0 1 2 2 3 2 1 0 0 0 0 0 0 0 0 0 0 0 0 0 0 0 0 0 0 0 0 0 0
0 0 0 0 1 1 1 1 0 0 1 2 3 3 2 1 0 0 0 0 0 0 0 0 0 0 0 0 0 0 0 0 0 0 0 0 0 0
0 0 0 1 2 2 2 2 1 0 1 2 3 3 2 1 0 0 0 0 0 0 0 0 0 0 0 0 0 0 0 0 0 0 0 0 0 0
0 0 0 1 2 2 2 2 1 0 0 1 2 2 2 1 0 0 0 0 0 0 0 0 0 0 0 0 0 0 0 0 0 0 0 0 0 0
0 0 0 0 1 1 1 1 0 0 0 0 1 1 1 0 0 0 0 0 0 0 0 0 0 0 0 0 0 0 0 0 0 0 0 0 0 0
Wind_Speed
2 2 2 2 2 2 2 2 3 2 2 2 2 2 2 1 1 2 2 4 2 1 1 1 0 1 1 1 1 1 1 1 1 2 2 1 2 2
2 2 2 2 1 1 2 2 3 3 2 1 1 1 1 2 2 2 1 4 3 2 1 1 0 1 1 0 0 1 1 0 0 0 1 1 1 1
4 4 3 2 2 2 2 2 2 3 3 2 1 2 2 2 2 2 2 3 3 4 3 2 2 1 2 2 1 1 1 0 0 1 1 1 1 1
4 4 4 3 3 3 2 3 3 3 3 3 2 2 3 2 2 3 2 2 2 4 4 3 3 2 2 2 2 2 2 1 1 1 2 2 2 1
5 5 4 4 4 3 4 3 3 3 3 3 3 2 3 2 3 3 3 2 3 3 5 4 4 4 3 3 3 3 2 2 2 2 2 2 2 2
5 5 5 5 5 4 4 4 3 3 4 4 3 3 3 3 3 3 3 3 3 3 3 3 4 6 5 4 4 3 3 2 2 2 2 2 2 3
5 5 5 3 3 3 3 4 4 4 4 4 4 4 4 4 4 3 3 3 3 2 3 3 4 4 5 6 6 5 4 4 3 3 3 3 4 4
6 5 5 5 5 6 6 5 5 5 5 5 4 5 5 4 3 4 3 4 3 2 3 3 3 3 3 3 4 5 5 5 4 4 4 4 4 5
6 5 4 4 5 6 7 9 8 7 7 7 6 6 5 4 5 5 4 4 4 1 3 3 3 3 3 2 4 5 5 5 5 5 5 5 5 5
6 6 6 6 5 5 5 5 5 5 6 7 7 6 5 4 4 4 4 4 4 2 3 3 2 3 2 2 6 6 5 5 5 5 5 5 6 6
6 5 6 6 3 5 6 6 5 4 3 4 4 4 2 2 3 3 4 4 4 3 3 3 2 2 3 3 3 6 5 5 4 4 4 4 5 6
4 5 4 5 3 5 6 6 6 5 4 5 5 6 6 5 6 6 5 5 4 3 3 3 2 2 3 2 2 2 3 5 5 5 5 4 4 5
4 4 3 4 5 5 6 5 4 4 4 4 4 4 4 4 4 5 5 4 4 3 2 3 3 3 3 2 2 2 2 2 3 4 5 5 5 6
4 3 3 4 5 6 5 4 4 5 4 4 4 4 4 3 3 4 4 4 4 4 3 3 3 3 3 4 3 2 2 3 3 3 3 4 5 6
3 2 2 3 5 5 6 6 6 5 4 4 4 4 4 3 3 3 4 4 4 3 3 4 4 3 4 4 4 3 3 3 3 3 3 3 4 4
3 3 3 4 4 3 4 5 5 4 4 5 4 4 3 3 3 3 4 3 3 3 3 4 4 4 4 5 5 4 3 3 3 3 4 4 4 4
3 3 4 4 4 4 4 4 4 4 4 4 4 4 4 3 3 3 3 4 4 4 3 3 3 3 4 5 5 5 4 4 3 4 4 5 5 5
3 4 4 4 5 5 5 4 4 4 4 4 5 5 4 4 4 3 3 4 4 4 4 3 3 3 4 4 4 5 4 4 3 4 4 5 6 5
4 4 4 4 4 4 4 5 4 4 4 4 5 5 5 4 4 4 4 4 5 4 4 3 4 4 5 5 4 5 5 4 4 4 5 5 6 6
5 5 4 4 4 4 4 4 4 4 4 4 4 4 4 4 4 5 5 5 5 5 4 4 4 5 6 5 4 3 6 6 5 5 5 5 6 5
4 4 4 4 4 4 4 4 4 4 5 4 4 4 4 4 5 5 5 5 5 5 5 5 4 4 5 4 5 4 4 5 5 5 6 5 6 6
4 4 4 4 4 4 4 4 4 4 5 5 4 4 4 4 5 6 5 5 5 5 5 4 3 3 4 5 6 5 4 3 4 5 6 7 5 5
5 5 4 4 4 4 4 5 6 5 5 5 5 4 4 4 5 5 5 5 4 5 4 4 3 4 4 5 5 5 6 5 4 4 4 5 6 8
Wind_Direction
223 221 230 231 233 246 244 255 273 265 224 191 193 189 202 195 180 212 203 134 163 174 153 145 141 107 80 57 47 24 21 31 49 37 20 350 346 348
221 227 225 221 220 224 236 254 269 277 267 176 209 187 198 210 194 237 201 151 163 186 191 183 191 215 194 204 305 336 344 355 142 51 353 349 336 323
205 208 211 213 216 218 222 234 246 258 254 243 233 212 209 228 196 230 223 211 173 177 196 213 220 226 231 229 226 236 236 226 261 263 278 297 310 312
215 214 215 206 217 224 226 229 227 242 247 247 232 221 229 231 235 235 230 227 223 159 184 207 220 227 231 227 227 226 224 232 247 247 258 259 262 279
225 225 225 218 220 218 228 237 233 229 240 242 237 227 232 229 232 232 228 230 236 185 188 201 213 224 227 223 222 218 215 224 239 248 257 273 277 276
230 231 234 232 231 229 229 235 232 223 228 234 236 231 228 223 232 236 230 219 232 221 215 219 207 212 215 216 213 210 215 225 231 235 252 273 278 274
230 231 234 248 283 263 253 238 229 228 225 230 236 236 230 223 230 235 244 244 233 230 238 228 215 219 207 207 210 216 219 219 224 233 245 261 265 261
232 231 221 217 215 218 235 250 258 247 242 239 241 241 239 236 237 240 243 245 240 207 246 242 232 236 232 224 189 201 213 220 227 234 243 248 252 257
235 233 230 226 225 226 213 214 227 239 252 259 254 252 246 238 235 236 238 248 259 206 236 241 235 246 235 206 179 202 216 223 229 234 239 244 249 253
237 238 234 231 228 239 235 229 232 228 230 238 248 253 253 251 244 244 247 251 253 220 229 253 243 253 250 217 177 198 212 221 230 238 240 242 249 254
234 239 245 242 213 225 234 235 233 228 211 230 270 273 296 279 254 232 226 229 237 222 215 252 258 263 247 227 179 187 203 213 224 234 241 250 258 254
231 229 234 245 218 218 228 234 239 238 227 212 214 214 222 209 211 229 234 234 240 234 199 235 243 254 252 216 213 202 207 205 216 226 235 248 262 259
230 230 222 196 214 226 239 241 245 254 243 239 234 231 226 223 214 219 230 237 242 247 207 219 244 246 257 256 244 236 244 247 232 224 221 226 243 264
243 240 221 192 210 223 228 227 228 241 241 236 232 232 232 229 225 221 224 232 247 257 232 220 242 246 250 258 256 241 250 257 256 254 256 232 236 247
252 258 244 218 217 217 209 213 219 228 230 232 234 235 237 236 226 227 230 232 239 241 238 231 240 246 249 253 257 252 257 253 246 251 259 260 260 258
231 210 210 229 235 228 215 216 226 230 234 235 239 239 236 226 223 224 225 220 229 231 227 233 238 243 246 251 254 253 253 249 245 256 258 260 261 258
223 225 226 221 229 226 222 224 225 222 225 231 234 232 230 228 224 226 229 227 234 237 228 221 232 242 256 256 250 252 256 256 255 257 260 264 263 261
219 228 231 233 237 236 230 228 227 227 230 231 230 230 228 225 224 224 225 230 233 236 233 224 213 228 241 243 247 255 254 260 264 260 258 263 267 268
225 236 239 242 245 247 243 237 234 233 234 234 233 231 231 229 226 223 225 230 235 237 237 228 224 232 246 255 234 217 252 259 259 259 259 263 268 270
234 238 240 242 242 244 246 241 238 234 231 233 233 230 229 229 229 229 228 232 235 238 239 232 230 237 247 260 268 255 229 248 253 258 263 267 272 278
237 242 241 241 242 242 245 244 240 237 234 232 232 231 230 231 233 233 235 234 239 239 241 244 247 241 254 255 254 256 250 227 248 259 265 266 271 272
237 239 239 241 241 239 238 238 236 235 236 235 233 232 232 233 236 236 234 235 234 238 244 251 249 238 238 241 253 261 269 266 248 250 258 262 267 268
237 238 236 235 237 236 236 237 236 234 232 233 229 228 226 227 233 236 234 236 239 239 241 242 240 241 246 249 254 260 263 265 267 271 269 250 244 263